Погода в Алексеевке

Погода в Алексеевке : погода сейчас, прогноз погоды и архив. Всё, что Вы хотите узнать о погоде в Алексеевке!

Поиск расширенной информации на нашем сайте:

Другие новости

Новости СМИ2

Главная страница сайта

Новости сайта

03.07.2017

Напоминаем, что на нашем специализированном сайте Метеоцентр.Азия вы можете получить высокодетализированные автоматические прогнозы погоды по пунктам России, СНГ и мира в авиационном формате (включающие направление и скорость ветра, видимость, явления погоды, количество и форму облачности, нижнюю и верхнюю границу облачности).

Рекомендуем: Skf подшипник 6308 www.vekko-podshipnik.ru.

Погода в Алексеевке - сегодня

Время (UTC), дата Ветер
(°,м/с) 
Видим.   Явления Облачность Т
(°С)
Тd
(°С)
f(%) Тe
(°С)
Pmin
(гПа)
dP
(гПа)
Po
(мм)
O2
(г/м3)
Тmin Tmax R s Состояние
почвы
18 18.01.18 тихо ()   н/о    ясно 
-24.9 -28.2 74 -25  1036.5  -0.3  738  329    -13.3       
21 18.01.18 тихо ()   н/о    ясно 
-25.7 -29.1 73 -26  1036.7  738  330           
00 19.01.18 тихо ()   н/о    ясно 
-27 -30.4 73 -27  1036.7  -0.3  737  332           
03 19.01.18 250 (З) 20000 м    4/0 верхняя 
[Ci fib]
-26.6 -30 73 -27  1036.6  737  331        14  равномерный
сухой снег
100% 
06 19.01.18 тихо ()   20000 м    4/0 верхняя 
[Ci fib]
-18.2 -22.2 71 -18  1035.5  0.7  738  320  -27.3         
09 19.01.18 010 (С) 20000 м    6/0 верхняя 
[Ci fib]
-16.5 -21.5 65 -17  1035.5  0.3  738  318           
12 19.01.18 360 (С) 20000 м    3/0 верхняя 
[Ci fib]
-20.5 -24.9 68 -21  1037.6  1.2  739  324           
15 19.01.18 010 (С) н/о    ясно 
-24.3 -27.9 72 -25  1038.7  0.3  739  329    -14.4       
18 19.01.18 350 (С) н/о    ясно 
-23.5 -26.8 74 -24  1039.2  0.6  740  328    -14.4       
21 19.01.18 350 (С) н/о    ясно 
-23.1 -26.5 74 -24  1039.6  0.5  740  328           
00 20.01.18 тихо ()   н/о    4/0 верхняя 
[Ci fib]
-23.1 -26.5 74 -23  1039.9  0.3  740  328           
03 20.01.18 360 (С) 1000 м  дымка  10/0 верхняя 
[Cs]
-21 -23.1 83 -24  1039.5  740  325        14  равномерный
сухой снег
100% 
06 20.01.18 350 (С) 20000 м    ясно 
-20.2 -23.2 77 -23  1039.9  0.6  741  324  -24.5         
09 20.01.18 070 (В) 20000 м    ясно 
-18.4 -21.4 77 -23  1039.5  741  322           
12 20.01.18 040 (СВ) 20000 м    ясно 
-19.6 -22.5 78 -22  1040.2  0.4  741  323           
15 20.01.18 040 (СВ) н/о    ясно 
-20.2 -23.1 78 -26  1040.3  741  324    -18.3       
18 20.01.18 040 (СВ) н/о    4/4 300 м 
[St]
-19.4 -21.8 81 -24  1040.1  -0.1  741  323    -18.3       
21 20.01.18 360 (С) н/о    ясно 
-22.8 -25.2 81 -26  1041.4  0.6  741  328           
00 21.01.18 360 (С) н/о    ясно 
-24.9 -28.2 74 -28  1041.3  -0.6  741  330           
03 21.01.18 010 (С) 20000 м    3/0 
[St]
-26.8 -29.6 77 -33  1042.5  0.8  742  333        14  равномерный
сухой снег
100% 
06 21.01.18 040 (СВ) 20000 м    3/0 верхняя 
[Ci fib]
-22.9 -26.3 74 -28  1042.5  0.8  742  328  -26.8         
09 21.01.18 010 (С) 20000 м    3/0 верхняя 
[Ci fib]
-22.3 -27.8 61 -28  1042.5  0.1  742  327           
12 21.01.18 020 (С) 20000 м    8/0 средняя, верхняя 
[Ac lent|Ci fib]
-25.5 -29.7 68 -31  1044.2  743  332           
15 21.01.18 020 (С) н/о    6/0 средняя, верхняя 
[Ac lent|Ci fib]
-28.6 -33.8 61 -34  1046.4  1.4  744  337    -21       
18 21.01.18 010 (С) н/о    3/0 верхняя 
[Ci fib]
-31.2 -36.1 62 -35  1047.5  0.5  744  341    -21       
Время (UTC), дата Ветер
(°,м/с) 
Видим.   Явления Облачность Т
(°С)
Тd
(°С)
f(%) Тe
(°С)
Pmin
(гПа)
dP
(гПа)
Po
(мм)
O2
(г/м3)
Тmin Tmax R s Состояние
почвы

Для получения пояснительной информации подведите курсор к названию столбца.

ПОГОДА в Алексеевке - архив

Всё, что Вы хотите узнать о погоде в Алексеевке - удобно и подробно!

Выберите нужную дату (начиная с 1 января 2015* года) и нажмите кнопку "Найти".
Будут отображены архивные сводки погоды по пункту Алексеевка, начиная с указанной даты.


Отображать данные в формате CSV (для использования в таблицах Excel)


Внимание! Наш архив погоды предназначен исключительно для личного некоммерческого использования в познавательных целях. Если Вам необходимы официальные справки о состоянии погоды (для производственных, юридических, коммерческих и т.п. целей), обращайтесь в органы Росгидромета.

*Примечание: данная дата относится к архиву по метеостанциям СССР (Россия, СНГ, Балтия).
Архив по метеостанциям Зарубежной Европы и Азии (кроме Китая) хранится 10 дней, по другим регионам земного шара (Китай, Африка, Америка, Австралия, Океания) - 1 день.

Алексеевка - район местоположения метеостанции


Название, широта, долгота, высота метеостанции:
Алексеевка 52°ш. 70.9°д. 384 м над ур. моря [Казахстан]

Дополнительная информация

В oтличие oт бoльшинства пoгoдных сайтoв мы публикуем пoдрoбную метеoинфoрмацию в детальнoм прoфессиoнальнoм фoрмате.

Характеристики температуры и влажнoсти вoздуха измеряются на высoте 2 м в тени вдали oт зданий и деревьев.
Скoрoсть ветра измеряется на высoте 10 м (на урoвне рoста челoвека скoрoсть ветра ниже в 1.5-2 раза). Если метеoстанция нахoдится в гoрoде или в лесу, тo скoрoсть ветра занижена на 2-4 м/с пo сравнению с oткрытым местoм. Скoрoсть ветра над акватoриями крупных рек и oзёр, а также на вершинах хoлмoв на 2-5 м/с выше, чем в oбычных услoвиях.
Атмoсфернoе давление в разных тoчках местнoсти мoжет значительнo oтличаться oт давления на метеoстанции, в зависимoсти oт услoвий рельефа (при пoдъёме на 10 м давление пoнижается примернo на 1 мм рт.ст.).